sat.trackr.live / text

‹ back to catalog

STARLINK-34058

NORAD 63818 · 2025-092Q

PAYLOAD ACTIVE UNKNOWN

§ Identity

Operator
Country
US
Launch date
2025-05-04
Launch site
AFETR
Launch vehicle
Mass (kg)
RCS (m²)

Purposes: comms

External: N2YO · Heavens-Above · Gunter

§ Orbital elements

Epoch: 2026-05-25T03:49:31.944000Z

Period
94.27 min
Inclination
42.9967°
Eccentricity
0.0000676
Mean motion
15.27586247 rev/d
Perigee alt
482.6 km
Apogee alt
483.5 km
Semi-major
6,861.2 km
B*
5.8053e-4
RAAN
100.3428°
Arg perigee
248.1180°
Mean anomaly
111.9600°
Rev number
6,036

§ Raw data

STARLINK-340581 63818U 25092Q   26145.15939750  .00015750  00000+0  58053-3 0  99922 63818  42.9967 100.3428 0000676 248.1180 111.9600 15.27586247 60366

JSON: /api/v1/satellites/63818 · /tle

For live sub-satellite position, see the globe view (requires WebGL).

§ Visibility from observer

Set your observer location to see the next 7 days of passes ≥ 10°. The values pass through the URL so the page stays shareable.

No JS? Fill the form by hand. The geolocation button needs JavaScript.